User: anonymous   Login
Location: Unspecified
(0.0000°N, 0.0000°E)
Time: 09:07:05
(UTC+00:00)
Language:

A-11 Canister half - Orbit

View from above orbital plane
View from above orbital plane
View from above satellite
View from above satellite

Ground track
Ground track

The orbit data is extracted from the following two-line orbital elements,

1    53U 60009E   20093.89456809 -.00000039 +00000-0 +43924-3 0  9994
2    53 047.2747 131.9957 0100427 218.5397 140.8190 12.17241847659364
Epoch (UTC): 02 April 2020 21:28:10
Eccentricity: 0.0100427
inclination: 47.2747°
perigee height: 1524 km
apogee height: 1685 km
right ascension of ascending node: 131.9957°
argument of perigee: 218.5397°
revolutions per day: 12.17241847
mean anomaly at epoch: 140.8190°
orbit number at epoch: 65936

The dashed part of the orbit path shows where the satellite is in the earth's shadow,  

DLR